Regional Weather Roundup
Issued by NWS Lake Charles, LA

Home | Current Version | Previous Version | Text Only | Print | Product List | Glossary On
Versions: 1 2 3 4 5 6 7 8 9 10 11 12 13 14 15 16 17 18 19 20 21 22 23 24 25 26 27 28 29 30 31 32 33 34 35 36 37 38 39 40 41 42 43 44 45 46 47 48 49 50
000
ASUS44 KLCH 041910
RWRLCH
REGIONAL WEATHER ROUNDUP
NATIONAL WEATHER SERVICE LAKE CHARLES LA
200 PM CDT WED MAY 04 2016

Note: "fair" indicates few or no clouds below 12,000 feet with no
significant weather and/or obstructions to visibility.


ACROSS SOUTHEAST TEXAS

CITY           SKY/WX    TMP DP  RH WIND       PRES   REMARKS
BEAUMONT       SUNNY     80  50  34 NW13G18   29.99F
BEAUMONT CITY  FAIR      79  50  35 NW9       30.00F
ORANGE         CLEAR     77  40  26 NW8       30.01F
JASPER           N/A     76  50  39 W10       30.02F
$$

ACROSS CENTRAL LOUISIANA

CITY           SKY/WX    TMP DP  RH WIND       PRES   REMARKS
LEESVILLE      SUNNY     76  45  32 NW12      29.97F
FULLERTON      FAIR      78  47  33 VRB5      29.94F
ALEXANDRIA INT SUNNY     78  47  33 N10       29.94F
ESLER FIELD    MOSUNNY   79  48  33 W12       29.95F
DERIDDER       FAIR      77  45  32 NW9       30.00F
OAKDALE        CLEAR     78  49  36 NW13      29.97F
OPELOUSAS      FAIR      75  50  40 N10G18    29.96F
$$

ACROSS SOUTHWEST AND SOUTH CENTRAL LOUISIANA

CITY           SKY/WX    TMP DP  RH WIND       PRES   REMARKS
SULPHUR        CLEAR     78  50  37 NW10G16   29.99F
LAKE CHARLES   SUNNY    N/A N/A N/A NW9G17    29.98F
CHENNAULT INT  SUNNY     77  50  38 NW9G18    29.98
CAMERON PHI    CLEAR     73  52  46 N8G17     30.03F
DEQUINCY       FAIR      77  49  37 NW10G16   29.99F
JENNINGS       FAIR      75  52  43 NW9       29.98F
LAFAYETTE      SUNNY     78  48  34 NW14G25   29.97F
NEW IBERIA     SUNNY     76  49  38 NW17      29.97F
ABBEVILLE      NOT AVBL
PATTERSON      NOT AVBL
SALT POINT       N/A     75  53  46 NW9       29.94F
$$

SELECTED SITES ACROSS THE REGION

CITY           SKY/WX    TMP DP  RH WIND       PRES   REMARKS
HOUSTON BUSH   MOSUNNY   79  53  40 NW12G20   30.02F
HOUSTON HOBBY  MOSUNNY   80  49  33 NW9       30.01F
GALVESTON      SUNNY     77  54  44 N12       30.03F
COLLEGE STAT   SUNNY     80  52  37 NW12G18   30.03F
CONROE         SUNNY     78  52  40 NW9G17    30.03F
HUNTSVILLE     SUNNY     78  51  38 NW10G17   30.02F
LUFKIN         SUNNY     79  53  40 W9        30.00F
SHREVEPORT     MOSUNNY   80  51  36 W15       29.94F
MONROE         MOSUNNY   78  51  38 W16G24    29.91F
NATCHEZ MS     MOSUNNY   75  48  38 NW12G17   29.94F
BATON ROUGE    MOSUNNY   77  48  35 NW12      29.94F
N.O. INTL ARPT MOSUNNY   76  51  41 NW12G22   29.93F
SLIDELL        SUNNY     75  47  36 NW6G21    29.90F
$$

MARINE REPORTS

STATION/POSITION TIME  SKY/WX   TEMP    WIND        PRES    VSBY
                                AIR SEA DIR/SP/G
                 (UTC)          (F)     (DEG/KT/KT) (MB)    (MI)
BUOY 30 S HIGH I 1850            71 76  280/  6/  8 1016.5F
WVE H/P(F/S)=  1/ 7

SEA RIM ST PARK  1900            76     310/ 11/ 14 1016.4F
PORT ARTHUR      1800               74  360/ 11/ 14 1016.7F
SABINE PASS N    1800            74 76  320/  5/ 11 1018.0F
TEXAS POINT      NOT AVBL
CALCASIEU PASS   1800            71 75  340/ 10/ 12 1015.6F
LK CHARLES BEACH 1800            74 73              1016.5F
MARSH ISLAND     NOT AVBL
FRESH WATER LOCK 1800            72 74  300/ 10/ 15 1016.2F
AMERADA PASS     1800            71 73  310/  9/ 14 1014.8F
$$



USA.gov is the U.S. government's official web portal to all federal, state and local government web resources and services.